Regional Weather Roundup
Issued by NWS

Home | Current Version | Previous Version | Graphics & Text | Print | Product List | Glossary On
Versions: 1 2 3 4 5 6 7 8 9 10 11 12 13 14 15 16 17 18 19 20 21 22 23 24 25 26 27 28 29 30 31 32 33 34 35 36 37 38 39 40 41 42 43 44 45 46 47 48 49 50
000
ASUS45 KBOI 280210
RWRID
WEATHER ROUNDUP FOR IDAHO
NATIONAL WEATHER SERVICE BOISE ID
800 PM MDT MON APR 27 2015

NOTE: "FAIR" INDICATES FEW OR NO CLOUDS BELOW 12000 FEET
WITH NO SIGNIFICANT WEATHER AND/OR OBSTRUCTIONS TO VISIBILITY

IDZ012-014-280300-
SOUTHWEST IDAHO


CITY           SKY/WX    TMP DP  RH WIND       PRES   REMARKS
BOISE          CLEAR     66  28  24 W7        30.17F
CALDWELL       CLEAR     64  28  25 CALM      30.18S
MOUNTAIN HOME  CLEAR     64  25  22 S5        30.18F
$$

IDZ016-017-280300-
SOUTHCENTRAL IDAHO


CITY           SKY/WX    TMP DP  RH WIND       PRES   REMARKS
BURLEY         CLEAR     58  25  28 W3        30.20S
JEROME         CLEAR     61  25  25 E6        30.22S
TWIN FALLS     CLEAR     60  30  32 NE5       30.22S
$$

IDZ019>023-280300-
SOUTHEAST IDAHO


CITY           SKY/WX    TMP DP  RH WIND       PRES   REMARKS
IDAHO FALLS    CLEAR     59  21  23 E3        30.24S
POCATELLO      CLEAR     58  22  24 E6        30.23S
REXBURG        CLEAR     57  22  25 CALM      30.23S
$$

IDZ006-010-011-018-031-032-280300-
CENTRAL IDAHO MOUNTAINS


CITY           SKY/WX    TMP DP  RH WIND       PRES   REMARKS
MCCALL         CLEAR     59  24  26 NW7       30.20F
HAILEY         PTCLDY    54  30  40 SE9       30.26R
STANLEY          N/A     58  19  22 VRB3      30.25R
SALMON         CLEAR     61  28  29 W3        30.21R
CHALLIS        CLEAR     60  26  27 W3        30.22R
$$

IDZ002-004-006-007-026-280300-
NORTHERN IDAHO


CITY           SKY/WX    TMP DP  RH WIND       PRES   REMARKS
LEWISTON       CLEAR     70  29  21 NE9       30.14F
LOWELL           N/A     56  43  61 CALM      30.18R
COEUR D`ALENE  PTCLDY    63  34  34 N3        30.20F
MULLAN PASS    CLEAR     49  26  41 N5        30.28F
$$


USA.gov is the U.S. government's official web portal to all federal, state and local government web resources and services.